N4ASP-13 Weather Reports


time (UTC)temp
F
wind
direction
speed
knots
gust
knots
rain 1hr
in
rain 24hr
in
rain mn
in
humidity
%
barometer
mb
20260505003350 65 178 2.6 7.0 0.00 0.00 0.00 48 1014.5
20260505003250 65 182 2.6 7.0 0.00 0.00 0.00 48 1014.5
20260505003151 65 182 2.6 7.0 0.00 0.00 0.00 48 1014.5
20260505003050 65 193 2.6 7.0 0.00 0.00 0.00 48 1014.5
20260505002951 65 193 2.6 7.0 0.00 0.00 0.00 48 1014.5
20260505002850 65 165 2.6 7.0 0.00 0.00 0.00 48 1014.4
20260505002751 65 148 2.6 7.0 0.00 0.00 0.00 47 1014.5
20260505002650 65 169 2.6 7.0 0.00 0.00 0.00 48 1014.4
20260505002552 65 167 2.6 7.0 0.00 0.00 0.00 47 1014.4
20260505002446 65 174 2.6 7.0 0.00 0.00 0.00 47 1014.5
20260505002344 65 194 3.5 6.1 0.00 0.00 0.00 47 1014.4
20260505002245 65 194 3.5 6.1 0.00 0.00 0.00 47 1014.4
20260505002145 65 184 3.5 6.1 0.00 0.00 0.00 47 1014.5
20260505002045 65 197 3.5 6.1 0.00 0.00 0.00 47 1014.4
20260505001942 65 175 3.5 7.0 0.00 0.00 0.00 47 1014.4
20260505001842 65 164 3.5 7.0 0.00 0.00 0.00 47 1014.4
20260505001741 65 177 3.5 7.0 0.00 0.00 0.00 47 1014.4
20260505001640 66 150 3.5 7.0 0.00 0.00 0.00 47 1014.4
20260505001540 66 169 3.5 7.0 0.00 0.00 0.00 47 1014.4
20260505001442 66 171 2.6 7.0 0.00 0.00 0.00 47 1014.4
20260505001340 66 171 2.6 7.0 0.00 0.00 0.00 47 1014.4
20260505001241 66 155 2.6 7.0 0.00 0.00 0.00 47 1014.3
20260505001140 66 153 2.6 7.0 0.00 0.00 0.00 47 1014.3
20260505001040 66 209 3.5 7.0 0.00 0.00 0.00 47 1014.4
20260505000940 66 163 3.5 7.0 0.00 0.00 0.00 47 1014.3
20260505000840 66 210 3.5 7.0 0.00 0.00 0.00 47 1014.3
20260505000740 66 161 3.5 8.7 0.00 0.00 0.00 47 1014.4
20260505000638 66 184 3.5 8.7 0.00 0.00 0.00 46 1014.4
20260505000539 66 171 3.5 8.7 0.00 0.00 0.00 47 1014.3
20260505000436 66 170 3.5 8.7 0.00 0.00 0.00 46 1014.3
20260505000337 66 176 3.5 8.7 0.00 0.00 0.00 47 1014.3
20260505000234 67 145 3.5 8.7 0.00 0.00 0.00 46 1014.3
20260505000136 67 159 3.5 8.7 0.00 0.00 0.00 47 1014.3
20260505000034 67 154 3.5 8.7 0.00 0.00 0.00 47 1014.3
20260504235934 67 124 3.5 8.7 0.00 0.00 0.00 46 1014.3
20260504235835 67 169 3.5 8.7 0.00 0.00 0.00 46 1014.2
20260504235733 67 196 3.5 7.8 0.00 0.00 0.00 46 1014.2
20260504235632 67 173 3.5 7.8 0.00 0.00 0.00 47 1014.2
20260504235532 67 175 3.5 7.8 0.00 0.00 0.00 46 1014.1
20260504235432 67 136 3.5 7.0 0.00 0.00 0.00 46 1014.2
20260504235332 67 147 2.6 7.0 0.00 0.00 0.00 46 1014.1
20260504235233 67 163 2.6 7.0 0.00 0.00 0.00 47 1014.1
20260504235131 67 170 2.6 7.0 0.00 0.00 0.00 47 1014.1
20260504235030 67 173 2.6 7.0 0.00 0.00 0.00 47 1014.2
20260504234930 67 175 2.6 7.0 0.00 0.00 0.00 47 1014.1
20260504234830 67 181 2.6 7.0 0.00 0.00 0.00 46 1014.1
20260504234731 68 165 2.6 7.0 0.00 0.00 0.00 46 1014.1
20260504234631 68 169 2.6 7.0 0.00 0.00 0.00 47 1014.1
20260504234528 68 151 2.6 7.0 0.00 0.00 0.00 46 1014.1
20260504234430 68 167 1.7 5.2 0.00 0.00 0.00 46 1014.0
20260504234328 68 170 1.7 5.2 0.00 0.00 0.00 46 1014.0
20260504234229 68 171 1.7 5.2 0.00 0.00 0.00 46 1014.1
20260504234126 68 168 0.9 5.2 0.00 0.00 0.00 46 1014.0
20260504234027 68 156 0.9 5.2 0.00 0.00 0.00 46 1014.1
20260504233925 68 159 0.9 4.3 0.00 0.00 0.00 45 1014.0
20260504233824 68 172 0.9 4.3 0.00 0.00 0.00 45 1014.0
20260504233724 68 174 0.9 4.3 0.00 0.00 0.00 45 1014.0
20260504233625 68 173 0.0 4.3 0.00 0.00 0.00 45 1014.0
20260504233525 68 170 0.0 3.5 0.00 0.00 0.00 45 1014.1
20260504233425 69 182 0.0 1.7 0.00 0.00 0.00 45 1014.0
20260504233319 69 136 0.0 0.0 0.00 0.00 0.00 45 1013.9
20260504233218 69 195 0.0 0.0 0.00 0.00 0.00 45 1014.0
20260504233119 69 168 0.0 0.0 0.00 0.00 0.00 45 1014.0
20260504233018 69 183 0.0 0.0 0.00 0.00 0.00 45 1014.0
20260504232919 69 163 0.0 0.0 0.00 0.00 0.00 44 1014.0
20260504232814 69 143 0.0 0.0 0.00 0.00 0.00 44 1014.0
20260504232715 69 171 0.0 0.0 0.00 0.00 0.00 44 1014.0
20260504232614 69 153 0.0 0.0 0.00 0.00 0.00 44 1014.0
20260504232514 69 174 0.0 0.0 0.00 0.00 0.00 44 1014.0
20260504232412 69 150 0.0 0.0 0.00 0.00 0.00 44 1014.0
20260504232303 69 156 0.0 0.0 0.00 0.00 0.00 45 1014.0
20260504232202 69 172 0.0 0.0 0.00 0.00 0.00 44 1014.0
20260504232102 69 170 0.0 0.0 0.00 0.00 0.00 43 1013.9
20260504232003 69 161 0.0 0.0 0.00 0.00 0.00 44 1014.0
20260504231903 69 171 0.0 0.0 0.00 0.00 0.00 44 1013.9
20260504231758 69 165 0.0 0.0 0.00 0.00 0.00 43 1013.9
20260504231700 70 179 0.0 0.0 0.00 0.00 0.00 43 1013.9
20260504231558 70 178 0.0 0.0 0.00 0.00 0.00 43 1013.9
20260504231459 70 182 0.0 0.0 0.00 0.00 0.00 43 1014.0
20260504231356 70 167 0.0 0.0 0.00 0.00 0.00 44 1013.9
20260504231258 70 146 0.0 0.0 0.00 0.00 0.00 44 1013.9
20260504231155 70 142 0.0 0.0 0.00 0.00 0.00 43 1013.9
20260504231052 70 172 0.0 0.0 0.00 0.00 0.00 43 1013.9
20260504230953 70 189 0.0 0.0 0.00 0.00 0.00 43 1013.9
20260504230851 70 173 0.0 0.0 0.00 0.00 0.00 43 1013.9
20260504230740 70 174 0.0 0.0 0.00 0.00 0.00 43 1013.9
20260504230639 70 173 0.0 0.0 0.00 0.00 0.00 42 1013.8
20260504230541 70 175 0.0 0.0 0.00 0.00 0.00 43 1013.8
20260504230441 70 202 0.0 0.0 0.00 0.00 0.00 43 1013.9
20260504230340 70 163 0.0 0.0 0.00 0.00 0.00 43 1013.9
20260504230240 70 157 0.0 0.0 0.00 0.00 0.00 43 1013.9
20260504230138 70 252 0.0 0.0 0.00 0.00 0.00 42 1013.9
20260504230038 70 185 0.0 0.0 0.00 0.00 0.00 43 1013.9
20260504225936 70 117 0.0 0.0 0.00 0.00 0.00 43 1013.9
20260504225835 70 182 0.0 0.0 0.00 0.00 0.00 44 1013.8
20260504225732 70 190 0.0 0.0 0.00 0.00 0.00 44 1013.9
20260504225628 70 191 0.0 0.0 0.00 0.00 0.00 44 1013.8
20260504225529 70 190 0.0 0.0 0.00 0.00 0.00 44 1013.8
20260504225428 70 185 0.0 0.0 0.00 0.00 0.00 43 1013.8
20260504225328 70 148 0.0 0.0 0.00 0.00 0.00 44 1013.8
20260504225222 70 149 0.0 0.0 0.00 0.00 0.00 44 1013.8
20260504225123 70 168 0.0 0.0 0.00 0.00 0.00 44 1013.9
20260504225024 70 168 0.0 0.0 0.00 0.00 0.00 44 1013.9
20260504224922 70 171 0.0 0.0 0.00 0.00 0.00 44 1013.9
20260504224818 70 198 0.0 0.0 0.00 0.00 0.00 44 1013.8
20260504224719 70 151 0.0 0.0 0.00 0.00 0.00 45 1013.9
20260504224616 70 160 0.0 0.0 0.00 0.00 0.00 44 1013.9
20260504224514 70 167 0.0 0.0 0.00 0.00 0.00 45 1013.9
20260504224415 70 132 0.0 0.0 0.00 0.00 0.00 44 1013.9
20260504224312 70 180 0.0 0.0 0.00 0.00 0.00 44 1013.9
20260504224209 70 175 0.0 0.0 0.00 0.00 0.00 44 1013.9
20260504224108 70 109 0.0 0.0 0.00 0.00 0.00 44 1013.9
20260504224007 70 109 0.0 0.0 0.00 0.00 0.00 43 1013.9
20260504223907 70 135 0.0 0.0 0.00 0.00 0.00 43 1013.9
20260504223807 70 145 0.0 0.0 0.00 0.00 0.00 43 1013.9
20260504223657 70 167 0.0 0.0 0.00 0.00 0.00 43 1013.8
20260504223556 70 194 0.0 0.0 0.00 0.00 0.00 43 1013.9
20260504223457 71 196 0.0 0.0 0.00 0.00 0.00 43 1013.8
20260504223355 71 165 0.0 0.0 0.00 0.00 0.00 43 1013.9
20260504223257 71 159 0.0 0.0 0.00 0.00 0.00 44 1013.8
20260504223151 71 168 0.0 0.0 0.00 0.00 0.00 44 1013.9
20260504223052 71 167 0.0 0.0 0.00 0.00 0.00 43 1013.8
20260504222952 71 115 0.0 0.0 0.00 0.00 0.00 42 1013.8
20260504222853 71 132 0.0 0.0 0.00 0.00 0.00 43 1013.7
20260504222751 71 138 0.0 0.0 0.00 0.00 0.00 44 1013.8
20260504222645 71 144 0.0 0.0 0.00 0.00 0.00 43 1013.9
20260504222544 72 142 0.0 0.0 0.00 0.00 0.00 43 1013.7
20260504222445 72 146 0.0 0.0 0.00 0.00 0.00 43 1013.8
20260504222348 72 132 0.0 0.0 0.00 0.00 0.00 43 1013.8
20260504222245 72 198 0.0 0.0 0.00 0.00 0.00 43 1013.8
20260504222138 72 184 0.0 0.0 0.00 0.00 0.00 43 1013.8
20260504222038 72 164 0.0 0.0 0.00 0.00 0.00 43 1013.8
20260504221938 72 165 0.0 0.0 0.00 0.00 0.00 44 1013.8
20260504221837 72 165 0.0 0.0 0.00 0.00 0.00 45 1013.8
20260504221630 72 173 0.0 0.0 0.00 0.00 0.00 42 1013.7
20260504221528 72 221 0.0 0.0 0.00 0.00 0.00 44 1013.8
20260504221428 72 165 0.0 0.0 0.00 0.00 0.00 42 1013.8
20260504221329 72 150 0.0 0.0 0.00 0.00 0.00 42 1013.8
20260504221229 72 174 0.0 0.0 0.00 0.00 0.00 43 1013.8
20260504221128 72 161 0.0 0.0 0.00 0.00 0.00 43 1013.9
20260504221028 72 138 0.0 0.0 0.00 0.00 0.00 42 1013.8
20260504220925 72 197 0.0 0.0 0.00 0.00 0.00 43 1013.8
20260504220824 72 121 0.0 0.0 0.00 0.00 0.00 44 1013.9
20260504220722 72 211 0.0 0.0 0.00 0.00 0.00 44 1013.8
20260504220616 72 167 0.0 0.0 0.00 0.00 0.00 43 1013.8
20260504220516 72 119 0.0 0.0 0.00 0.00 0.00 43 1013.8
20260504220415 72 146 0.0 0.0 0.00 0.00 0.00 42 1013.7
20260504220314 72 183 0.0 0.0 0.00 0.00 0.00 43 1013.9
20260504220213 72 133 0.0 0.0 0.00 0.00 0.00 42 1013.8
20260504220106 72 174 0.0 0.0 0.00 0.00 0.00 43 1013.8
20260504220006 72 140 0.0 0.0 0.00 0.00 0.00 44 1013.8
20260504215906 72 139 0.0 0.0 0.00 0.00 0.00 42 1013.9
20260504215807 72 140 0.0 0.0 0.00 0.00 0.00 43 1013.9
20260504215707 72 219 0.0 0.0 0.00 0.00 0.00 45 1013.8
20260504215602 72 166 0.0 0.0 0.00 0.00 0.00 45 1013.8
20260504215500 72 166 0.0 0.0 0.00 0.00 0.00 44 1013.9
20260504215401 72 158 0.0 0.0 0.00 0.00 0.00 44 1013.9
20260504215300 72 158 0.0 0.0 0.00 0.00 0.00 44 1013.9
20260504215201 73 169 0.0 0.0 0.00 0.00 0.00 43 1013.8
20260504215054 73 121 0.0 0.0 0.00 0.00 0.00 43 1014.0
20260504214954 73 145 0.0 0.0 0.00 0.00 0.00 45 1013.9
20260504214853 73 135 0.0 0.0 0.00 0.00 0.00 44 1013.9
20260504214751 73 153 0.0 0.0 0.00 0.00 0.00 45 1013.9
20260504214651 72 156 0.0 0.0 0.00 0.00 0.00 43 1013.8
20260504214547 72 135 0.0 0.0 0.00 0.00 0.00 45 1013.9
20260504214446 72 134 0.0 0.0 0.00 0.00 0.00 45 1013.9
20260504214347 72 147 0.0 0.0 0.00 0.00 0.00 44 1014.0
20260504214246 72 198 0.0 0.0 0.00 0.00 0.00 44 1013.9
20260504214145 72 148 0.0 0.0 0.00 0.00 0.00 43 1013.9
20260504214045 72 167 0.0 0.0 0.00 0.00 0.00 44 1013.9
20260504213942 72 103 0.0 0.0 0.00 0.00 0.00 44 1013.8
20260504213840 72 155 0.0 0.0 0.00 0.00 0.00 45 1013.9
20260504213740 73 149 0.0 0.0 0.00 0.00 0.00 43 1013.9
20260504213638 73 179 0.0 0.0 0.00 0.00 0.00 45 1013.9
20260504213528 73 163 0.0 0.0 0.00 0.00 0.00 44 1013.9
20260504213428 73 128 0.0 0.0 0.00 0.00 0.00 44 1013.8
20260504213329 73 160 0.0 0.0 0.00 0.00 0.00 44 1013.8
20260504213229 73 152 0.0 0.0 0.00 0.00 0.00 44 1014.0
20260504213129 73 149 0.0 0.0 0.00 0.00 0.00 44 1013.8
20260504213025 73 185 0.0 0.0 0.00 0.00 0.00 44 1013.8
20260504212924 73 217 0.0 0.0 0.00 0.00 0.00 44 1013.9
20260504212825 73 118 0.0 0.0 0.00 0.00 0.00 44 1014.0
20260504212725 73 190 0.0 0.0 0.00 0.00 0.00 43 1013.9
20260504212623 73 169 0.0 0.0 0.00 0.00 0.00 45 1013.9
20260504212518 73 152 0.0 0.0 0.00 0.00 0.00 44 1013.9
20260504212416 73 164 0.0 0.0 0.00 0.00 0.00 44 1013.9
20260504212317 73 158 0.0 0.0 0.00 0.00 0.00 44 1013.9
20260504212216 73 118 0.0 0.0 0.00 0.00 0.00 44 1014.0
20260504212116 73 144 0.0 0.0 0.00 0.00 0.00 44 1014.0
20260504212006 73 161 0.0 0.0 0.00 0.00 0.00 43 1014.0
20260504211906 73 146 0.0 0.0 0.00 0.00 0.00 43 1013.9
20260504211807 73 157 0.0 0.0 0.00 0.00 0.00 45 1014.0
20260504211705 73 166 0.0 0.0 0.00 0.00 0.00 45 1013.9
20260504211606 73 224 0.0 0.0 0.00 0.00 0.00 44 1014.0
20260504211500 73 138 0.0 0.0 0.00 0.00 0.00 44 1013.9
20260504211402 73 222 0.0 0.0 0.00 0.00 0.00 45 1014.0
20260504211300 73 163 0.0 0.0 0.00 0.00 0.00 45 1014.0
20260504211201 73 183 0.0 0.0 0.00 0.00 0.00 45 1014.0
20260504211100 73 149 0.0 0.0 0.00 0.00 0.00 44 1014.0
20260504210958 73 144 0.0 0.0 0.00 0.00 0.00 45 1014.0
20260504210859 73 170 0.0 0.0 0.00 0.00 0.00 44 1014.0
20260504210756 73 158 0.0 0.0 0.00 0.00 0.00 45 1013.9
20260504210656 72 179 0.0 0.0 0.00 0.00 0.00 45 1013.9
20260504210555 72 172 0.0 0.0 0.00 0.00 0.00 45 1014.0
20260504210447 72 173 0.0 0.0 0.00 0.00 0.00 45 1013.9
20260504210344 72 113 0.0 0.0 0.00 0.00 0.00 44 1013.9
20260504210245 72 107 0.0 0.0 0.00 0.00 0.00 45 1013.9
20260504210143 72 135 0.0 0.0 0.00 0.00 0.00 45 1014.0
20260504210044 72 171 0.0 0.0 0.00 0.00 0.00 44 1014.0
20260504205938 72 226 0.0 0.0 0.00 0.00 0.00 45 1014.1
20260504205838 73 151 0.0 0.0 0.00 0.00 0.00 45 1013.9
20260504205739 73 144 0.0 0.0 0.00 0.00 0.00 45 1013.9
20260504205638 73 128 0.0 0.0 0.00 0.00 0.00 44 1013.9
20260504205538 73 117 0.0 0.0 0.00 0.00 0.00 43 1013.9
20260504205435 73 145 0.0 0.0 0.00 0.00 0.00 43 1014.0
20260504205333 73 136 0.0 0.0 0.00 0.00 0.00 43 1014.0
20260504205233 73 121 0.0 0.0 0.00 0.00 0.00 44 1014.1
20260504205132 73 75 0.0 0.0 0.00 0.00 0.00 43 1014.0
20260504205032 73 155 0.0 0.0 0.00 0.00 0.00 42 1014.0
20260504204923 73 137 0.0 0.0 0.00 0.00 0.00 41 1014.0
20260504204823 74 127 0.0 0.0 0.00 0.00 0.00 43 1014.1
20260504204723 74 163 0.0 0.0 0.00 0.00 0.00 42 1014.1
20260504204623 74 154 0.0 0.0 0.00 0.00 0.00 42 1014.0
20260504204522 74 219 0.0 0.0 0.00 0.00 0.00 43 1014.1
20260504204416 74 156 0.0 0.0 0.00 0.00 0.00 42 1014.0
20260504204315 74 130 0.0 0.0 0.00 0.00 0.00 42 1014.0
20260504204215 74 109 0.0 0.0 0.00 0.00 0.00 42 1013.9
20260504204117 74 132 0.0 0.0 0.00 0.00 0.00 42 1014.1
20260504204016 74 128 0.0 0.0 0.00 0.00 0.00 43 1014.1
20260504203916 74 187 0.0 0.0 0.00 0.00 0.00 41 1014.1
20260504203815 74 169 0.0 0.0 0.00 0.00 0.00 42 1014.2
20260504203712 74 173 0.0 0.0 0.00 0.00 0.00 42 1014.1
20260504203612 74 128 0.0 0.0 0.00 0.00 0.00 44 1014.0
20260504203511 74 166 0.0 0.0 0.00 0.00 0.00 42 1014.1
20260504203400 74 148 0.0 0.0 0.00 0.00 0.00 43 1014.1
20260504203301 74 166 0.0 0.0 0.00 0.00 0.00 43 1014.1
20260504203200 74 176 0.0 0.0 0.00 0.00 0.00 43 1014.0
20260504203101 74 188 0.0 0.0 0.00 0.00 0.00 42 1014.1
20260504203000 74 151 0.0 0.0 0.00 0.00 0.00 42 1014.1
20260504202854 74 148 0.0 0.0 0.00 0.00 0.00 41 1014.0
20260504202754 74 240 0.0 0.0 0.00 0.00 0.00 40 1014.1
20260504202655 74 187 0.0 0.0 0.00 0.00 0.00 41 1014.2
20260504202555 74 194 0.0 0.0 0.00 0.00 0.00 41 1014.2
20260504202455 74 178 0.0 0.0 0.00 0.00 0.00 42 1014.1
20260504202351 74 129 0.0 0.0 0.00 0.00 0.00 42 1014.2
20260504202248 74 80 0.0 0.0 0.00 0.00 0.00 40 1014.3
20260504202149 74 223 0.0 0.0 0.00 0.00 0.00 43 1014.3
20260504202048 74 116 0.0 0.0 0.00 0.00 0.00 43 1014.3
20260504201949 74 134 0.0 0.0 0.00 0.00 0.00 43 1014.3
20260504201843 74 140 0.0 0.0 0.00 0.00 0.00 42 1014.3
20260504201743 74 160 0.0 0.0 0.00 0.00 0.00 42 1014.3
20260504201640 74 180 0.0 0.0 0.00 0.00 0.00 41 1014.3
20260504201541 74 167 0.0 0.0 0.00 0.00 0.00 41 1014.4
20260504201438 74 168 0.0 0.0 0.00 0.00 0.00 42 1014.4
20260504201335 74 177 0.0 0.0 0.00 0.00 0.00 45 1014.4
20260504201232 74 177 0.0 0.0 0.00 0.00 0.00 44 1014.3
20260504201132 74 178 0.0 0.0 0.00 0.00 0.00 42 1014.3
20260504201033 74 205 0.0 0.0 0.00 0.00 0.00 41 1014.3
20260504200933 74 322 0.0 0.0 0.00 0.00 0.00 42 1014.3
20260504200826 74 163 0.0 0.0 0.00 0.00 0.00 44 1014.3
20260504200726 74 134 0.0 0.0 0.00 0.00 0.00 42 1014.3
20260504200627 74 146 0.0 0.0 0.00 0.00 0.00 41 1014.4
20260504200527 74 135 0.0 0.0 0.00 0.00 0.00 41 1014.4
20260504200427 74 132 0.0 0.0 0.00 0.00 0.00 42 1014.4
20260504200316 74 153 0.0 0.0 0.00 0.00 0.00 42 1014.3
20260504200216 74 193 0.0 0.0 0.00 0.00 0.00 43 1014.4
20260504200016 74 125 0.0 0.0 0.00 0.00 0.00 42 1014.4
20260504195917 74 173 0.0 0.0 0.00 0.00 0.00 42 1014.5
20260504195812 74 145 0.0 0.0 0.00 0.00 0.00 41 1014.5
20260504195712 74 120 0.0 0.0 0.00 0.00 0.00 42 1014.5
20260504195612 74 144 0.0 0.0 0.00 0.00 0.00 44 1014.5
20260504195513 74 121 0.0 0.0 0.00 0.00 0.00 42 1014.5
20260504195410 74 306 0.0 0.0 0.00 0.00 0.00 41 1014.6
20260504195305 74 156 0.0 0.0 0.00 0.00 0.00 45 1014.6
20260504195205 74 155 0.0 0.0 0.00 0.00 0.00 44 1014.7
20260504195104 74 138 0.0 0.0 0.00 0.00 0.00 43 1014.7
20260504195005 74 123 0.0 0.0 0.00 0.00 0.00 44 1014.7
20260504194903 74 144 0.0 0.0 0.00 0.00 0.00 41 1014.7
20260504194756 74 148 0.0 0.0 0.00 0.00 0.00 42 1014.6
20260504194653 74 112 0.0 0.0 0.00 0.00 0.00 40 1014.6
20260504194553 74 115 0.0 0.0 0.00 0.00 0.00 41 1014.6
20260504194453 75 143 0.0 3.5 0.00 0.00 0.00 40 1014.7
20260504194353 75 162 0.9 4.3 0.00 0.00 0.00 40 1014.7
20260504194248 75 153 0.9 6.1 0.00 0.00 0.00 40 1014.8
20260504194146 75 141 0.9 6.1 0.00 0.00 0.00 41 1014.8
20260504194046 75 192 1.7 6.1 0.00 0.00 0.00 43 1014.7
20260504193947 75 157 1.7 7.8 0.00 0.00 0.00 41 1014.8
20260504193847 75 275 1.7 7.8 0.00 0.00 0.00 41 1014.8
20260504193746 75 283 2.6 7.8 0.00 0.00 0.00 42 1014.8
20260504193644 75 351 2.6 7.8 0.00 0.00 0.00 43 1015.0
20260504193544 75 133 2.6 7.8 0.00 0.00 0.00 41 1014.9
20260504193443 75 136 2.6 7.8 0.00 0.00 0.00 42 1014.9
20260504193340 75 134 2.6 7.8 0.00 0.00 0.00 41 1014.9
20260504193227 75 323 2.6 7.8 0.00 0.00 0.00 39 1014.9
20260504193126 75 317 2.6 7.8 0.00 0.00 0.00 40 1014.9
20260504193026 75 207 1.7 6.1 0.00 0.00 0.00 41 1015.0
20260504192927 75 184 1.7 6.1 0.00 0.00 0.00 40 1014.8
20260504192826 75 231 1.7 6.1 0.00 0.00 0.00 42 1015.0
20260504192722 75 112 1.7 6.1 0.00 0.00 0.00 44 1015.0
20260504192622 75 177 1.7 6.1 0.00 0.00 0.00 43 1015.0
20260504192524 75 101 1.7 6.1 0.00 0.00 0.00 42 1015.0
20260504192422 75 123 1.7 6.1 0.00 0.00 0.00 42 1015.0
20260504192321 74 163 1.7 6.1 0.00 0.00 0.00 43 1015.0
20260504192214 74 155 1.7 7.0 0.00 0.00 0.00 42 1015.1
20260504192114 74 155 2.6 7.0 0.00 0.00 0.00 41 1015.1
20260504192015 74 119 2.6 7.0 0.00 0.00 0.00 45 1015.0
20260504191913 74 187 2.6 7.0 0.00 0.00 0.00 45 1015.1
20260504191815 74 275 1.7 7.0 0.00 0.00 0.00 42 1015.1
20260504191704 74 298 1.7 7.0 0.00 0.00 0.00 42 1015.1
20260504191604 74 299 1.7 7.0 0.00 0.00 0.00 41 1015.1
20260504191504 74 321 1.7 7.0 0.00 0.00 0.00 41 1015.3
20260504191403 74 309 0.9 7.0 0.00 0.00 0.00 44 1015.3
20260504191305 74 146 0.9 5.2 0.00 0.00 0.00 42 1015.1
20260504191158 74 286 0.9 5.2 0.00 0.00 0.00 40 1015.1
20260504191059 74 221 0.0 5.2 0.00 0.00 0.00 41 1015.3
20260504190959 74 355 0.0 3.5 0.00 0.00 0.00 42 1015.3
20260504190859 74 157 0.0 0.9 0.00 0.00 0.00 41 1015.3
20260504190759 74 172 0.0 0.0 0.00 0.00 0.00 42 1015.3
20260504190655 74 146 0.0 0.0 0.00 0.00 0.00 45 1015.4
20260504190555 74 125 0.0 0.0 0.00 0.00 0.00 44 1015.3
20260504190455 74 164 0.0 0.0 0.00 0.00 0.00 44 1015.3
20260504190353 74 148 0.0 0.0 0.00 0.00 0.00 44 1015.3
20260504190253 74 144 0.0 0.0 0.00 0.00 0.00 43 1015.3
20260504190148 74 336 0.0 0.0 0.00 0.00 0.00 44 1015.3
20260504190049 74 105 0.0 4.3 0.00 0.00 0.00 47 1015.3
20260504185947 74 106 0.9 7.0 0.00 0.00 0.00 46 1015.4
20260504185848 74 107 0.9 7.0 0.00 0.00 0.00 43 1015.4
20260504185749 74 96 1.7 7.0 0.00 0.00 0.00 44 1015.3
20260504185649 74 123 1.7 8.7 0.00 0.00 0.00 45 1015.4
20260504185548 74 63 1.7 8.7 0.00 0.00 0.00 45 1015.3
20260504185448 74 34 1.7 8.7 0.00 0.00 0.00 44 1015.4
20260504185345 74 110 2.6 8.7 0.00 0.00 0.00 42 1015.5
20260504185246 74 214 2.6 8.7 0.00 0.00 0.00 42 1015.5
20260504185144 74 212 2.6 8.7 0.00 0.00 0.00 42 1015.4
20260504185045 74 157 2.6 8.7 0.00 0.00 0.00 43 1015.5
20260504184945 74 142 2.6 8.7 0.00 0.00 0.00 45 1015.4
20260504184846 74 164 2.6 8.7 0.00 0.00 0.00 44 1015.5
20260504184743 74 147 2.6 8.7 0.00 0.00 0.00 44 1015.4
20260504184644 74 158 2.6 6.1 0.00 0.00 0.00 45 1015.5
20260504184545 74 312 2.6 6.1 0.00 0.00 0.00 44 1015.5
20260504184449 74 351 2.6 6.1 0.00 0.00 0.00 44 1015.5
20260504184341 74 0 2.6 6.1 0.00 0.00 0.00 43 1015.4
20260504184239 74 290 2.6 6.1 0.00 0.00 0.00 45 1015.5
20260504184141 74 55 1.7 6.1 0.00 0.00 0.00 47 1015.4
20260504184039 74 158 1.7 6.1 0.00 0.00 0.00 45 1015.5
20260504183934 74 74 1.7 6.1 0.00 0.00 0.00 44 1015.4
20260504183834 74 173 0.9 6.1 0.00 0.00 0.00 44 1015.5
20260504183734 74 176 0.9 6.1 0.00 0.00 0.00 46 1015.5
20260504183634 74 178 0.9 6.1 0.00 0.00 0.00 44 1015.4
20260504183533 74 104 0.0 6.1 0.00 0.00 0.00 46 1015.4
20260504183431 74 161 0.0 3.5 0.00 0.00 0.00 46 1015.4
20260504183332 73 160 0.0 0.9 0.00 0.00 0.00 45 1015.5
20260504183231 73 160 0.0 0.0 0.00 0.00 0.00 46 1015.5
20260504183131 73 165 0.0 0.0 0.00 0.00 0.00 46 1015.5
20260504183030 73 140 0.0 0.0 0.00 0.00 0.00 45 1015.6
20260504182931 73 303 0.0 0.0 0.00 0.00 0.00 43 1015.6
20260504182827 73 303 0.0 0.0 0.00 0.00 0.00 43 1015.6
20260504182729 73 302 0.0 0.0 0.00 0.00 0.00 43 1015.5
20260504182626 73 275 0.0 0.0 0.00 0.00 0.00 43 1015.7
20260504182526 73 256 0.0 0.0 0.00 0.00 0.00 44 1015.6
20260504182425 73 286 0.0 0.0 0.00 0.00 0.00 44 1015.7
20260504182325 73 319 0.0 0.0 0.00 0.00 0.00 45 1015.6
20260504182225 73 225 0.0 0.0 0.00 0.00 0.00 45 1015.6
20260504182124 73 82 0.0 0.0 0.00 0.00 0.00 45 1015.7
20260504182025 73 62 0.0 0.0 0.00 0.00 0.00 46 1015.7
20260504181821 73 148 0.0 0.0 0.00 0.00 0.00 45 1015.7
20260504181719 73 117 0.0 0.0 0.00 0.00 0.00 46 1015.7
20260504181619 73 84 0.0 0.0 0.00 0.00 0.00 44 1015.7
20260504181518 73 244 0.0 0.0 0.00 0.00 0.00 44 1015.7
20260504181418 73 91 0.0 0.0 0.00 0.00 0.00 45 1015.8
20260504181319 73 185 0.0 0.0 0.00 0.00 0.00 45 1015.8
20260504181215 73 298 0.0 0.0 0.00 0.00 0.00 45 1015.7
20260504181114 73 271 0.0 0.0 0.00 0.00 0.00 44 1015.7
20260504181015 73 244 0.0 0.0 0.00 0.00 0.00 46 1015.7
20260504180913 73 312 0.0 0.0 0.00 0.00 0.00 47 1015.7
20260504180813 73 26 0.0 0.0 0.00 0.00 0.00 46 1015.7
20260504180709 73 143 0.0 0.0 0.00 0.00 0.00 46 1015.7
20260504180607 72 224 0.0 0.0 0.00 0.00 0.00 44 1015.7
20260504180507 72 243 0.0 0.0 0.00 0.00 0.00 45 1015.8
20260504180409 72 48 0.0 0.0 0.00 0.00 0.00 45 1015.7
20260504180307 72 273 0.0 0.0 0.00 0.00 0.00 46 1015.7
20260504180205 72 355 0.0 0.0 0.00 0.00 0.00 47 1015.7
20260504180105 72 355 0.0 0.0 0.00 0.00 0.00 45 1015.7
20260504180005 72 117 0.0 0.0 0.00 0.00 0.00 45 1015.8
20260504175905 72 342 0.0 0.0 0.00 0.00 0.00 44 1015.8
20260504175802 72 341 0.0 0.0 0.00 0.00 0.00 45 1015.8
20260504175704 72 341 0.0 0.0 0.00 0.00 0.00 46 1015.8
20260504175601 71 341 0.0 0.0 0.00 0.00 0.00 46 1015.8
20260504175500 71 341 0.0 0.0 0.00 0.00 0.00 44 1015.7
20260504175401 71 327 0.0 0.0 0.00 0.00 0.00 44 1015.8
20260504175301 72 313 0.0 0.0 0.00 0.00 0.00 45 1015.7
20260504175202 72 296 0.0 0.0 0.00 0.00 0.00 44 1015.8
20260504175059 72 315 0.0 0.0 0.00 0.00 0.00 47 1015.8
20260504174958 72 334 0.0 0.0 0.00 0.00 0.00 45 1015.9
20260504174858 72 227 0.0 0.0 0.00 0.00 0.00 45 1015.9
20260504174759 71 166 0.0 0.0 0.00 0.00 0.00 45 1015.9
20260504174659 71 178 0.0 0.0 0.00 0.00 0.00 46 1015.9
20260504174558 71 317 0.0 0.0 0.00 0.00 0.00 46 1015.9
20260504174453 71 309 0.0 0.0 0.00 0.00 0.00 45 1015.9
20260504174351 71 278 0.0 0.0 0.00 0.00 0.00 44 1015.9
20260504174251 71 163 0.0 0.0 0.00 0.00 0.00 45 1015.9
20260504174150 71 169 0.0 0.0 0.00 0.00 0.00 46 1016.0
20260504174052 71 67 0.0 0.0 0.00 0.00 0.00 47 1015.9
20260504173944 71 302 0.0 0.0 0.00 0.00 0.00 45 1015.9
20260504173844 71 312 0.0 0.0 0.00 0.00 0.00 45 1016.0
20260504173744 71 317 0.0 0.0 0.00 0.00 0.00 45 1016.0
20260504173645 71 169 0.0 0.0 0.00 0.00 0.00 46 1015.9
20260504173545 71 237 0.0 0.0 0.00 0.00 0.00 44 1016.0
20260504173441 71 224 0.0 0.0 0.00 0.00 0.00 45 1015.9
20260504173338 71 212 0.0 0.0 0.00 0.00 0.00 46 1016.0
20260504173238 71 44 0.0 0.0 0.00 0.00 0.00 46 1016.0
20260504173139 71 324 0.0 0.0 0.00 0.00 0.00 46 1016.0
20260504173038 71 336 0.0 0.0 0.00 0.00 0.00 47 1016.0
20260504172939 71 281 0.0 0.0 0.00 0.00 0.00 45 1016.0
20260504172838 71 329 0.0 0.0 0.00 0.00 0.00 45 1015.9
20260504172737 71 311 0.0 0.0 0.00 0.00 0.00 45 1016.0
20260504172636 71 331 0.0 0.0 0.00 0.00 0.00 45 1016.1
20260504172536 71 302 0.0 0.0 0.00 0.00 0.00 45 1016.0
20260504172434 71 288 0.0 0.0 0.00 0.00 0.00 45 1016.1
20260504172335 71 296 0.0 0.0 0.00 0.00 0.00 44 1016.1
20260504172232 72 286 0.0 0.0 0.00 0.00 0.00 44 1016.0
20260504172133 72 225 0.0 0.0 0.00 0.00 0.00 46 1016.1
20260504172033 71 169 0.0 0.0 0.00 0.00 0.00 44 1016.0
20260504171932 71 199 0.0 0.0 0.00 0.00 0.00 45 1016.0
20260504171833 71 82 0.0 0.0 0.00 0.00 0.00 46 1016.0
20260504171734 71 128 0.0 0.0 0.00 0.00 0.00 46 1016.0
20260504171630 71 297 0.0 0.0 0.00 0.00 0.00 46 1015.9
20260504171532 71 277 0.0 0.0 0.00 0.00 0.00 45 1016.0
20260504171430 71 82 0.0 0.0 0.00 0.00 0.00 45 1016.0
20260504171332 71 321 0.0 0.0 0.00 0.00 0.00 46 1016.0
20260504171228 71 346 0.0 0.0 0.00 0.00 0.00 44 1016.0
20260504171126 71 299 0.0 0.0 0.00 0.00 0.00 45 1016.1
20260504171026 71 167 0.0 0.0 0.00 0.00 0.00 45 1016.1
20260504170925 71 301 0.0 0.0 0.00 0.00 0.00 45 1016.0
20260504170825 71 355 0.0 0.0 0.00 0.00 0.00 45 1016.0
20260504170720 71 329 0.0 0.0 0.00 0.00 0.00 47 1016.1
20260504170621 71 328 0.0 0.0 0.00 0.00 0.00 47 1016.0
20260504170521 71 346 0.0 0.0 0.00 0.00 0.00 47 1016.0
20260504170421 70 346 0.0 0.0 0.00 0.00 0.00 48 1016.0
20260504170319 70 281 0.0 0.0 0.00 0.00 0.00 49 1016.1
20260504170219 70 207 0.0 0.0 0.00 0.00 0.00 47 1016.1
20260504170117 70 187 0.0 0.0 0.00 0.00 0.00 48 1016.0
20260504160420 68 283 0.0 0.0 0.00 0.00 0.00 47 1016.9
20260504160319 68 306 0.0 0.0 0.00 0.00 0.00 50 1016.7
20260504160220 68 319 0.0 0.0 0.00 0.00 0.00 50 1016.9
20260504160119 68 321 0.0 0.0 0.00 0.00 0.00 50 1016.9
20260504151107 66 334 0.0 0.0 0.00 0.00 0.00 46 1017.8
20260504151008 66 315 0.0 0.0 0.00 0.00 0.00 47 1017.8
20260504150907 66 298 0.0 0.0 0.00 0.00 0.00 46 1017.8
20260504150808 66 355 0.0 0.0 0.00 0.00 0.00 48 1017.8
20260504150707 66 308 0.0 0.0 0.00 0.00 0.00 46 1017.9
20260504150606 66 299 0.0 0.0 0.00 0.00 0.00 47 1017.8
20260504150508 66 294 0.0 0.0 0.00 0.00 0.00 46 1017.7
20260504150408 66 257 0.0 0.0 0.00 0.00 0.00 47 1017.8
20260504150308 66 303 0.0 0.0 0.00 0.00 0.00 47 1017.8
20260504150207 66 308 0.0 0.0 0.00 0.00 0.00 47 1017.7
20260504150107 66 275 0.0 0.0 0.00 0.00 0.00 46 1017.7
20260504141258 63 218 1.7 5.2 0.00 0.00 0.00 49 1017.4
20260504141158 63 219 1.7 5.2 0.00 0.00 0.00 49 1017.3
20260504141058 63 215 1.7 5.2 0.00 0.00 0.00 48 1017.2
20260504140959 63 212 2.6 5.2 0.00 0.00 0.00 48 1017.2
20260504140859 63 211 2.6 5.2 0.00 0.00 0.00 49 1017.3
20260504140759 63 294 2.6 6.1 0.00 0.00 0.00 47 1017.2
20260504140659 62 276 2.6 6.1 0.00 0.00 0.00 48 1017.3
20260504140559 62 275 2.6 6.1 0.00 0.00 0.00 49 1017.3
20260504140459 63 294 2.6 6.1 0.00 0.00 0.00 47 1017.2
20260504140359 63 290 1.7 6.1 0.00 0.00 0.00 48 1017.4
20260504140259 62 307 1.7 6.1 0.00 0.00 0.00 49 1017.2
20260504140200 62 305 1.7 6.1 0.00 0.00 0.00 50 1017.3
20260504130749 61 261 0.0 0.0 0.00 0.00 0.00 51 1017.0
20260504130650 61 349 0.0 0.9 0.00 0.00 0.00 51 1016.9
20260504130550 61 278 0.0 0.9 0.00 0.00 0.00 50 1016.9
20260504130450 61 283 0.0 0.9 0.00 0.00 0.00 51 1016.9
20260504130350 61 284 0.0 0.9 0.00 0.00 0.00 51 1016.9
20260504130247 61 233 0.0 0.9 0.00 0.00 0.00 52 1016.7
20260504130147 60 298 0.0 2.6 0.00 0.00 0.00 55 1016.7
20260504120318 57 336 0.9 2.6 0.00 0.00 0.00 57 1016.6
20260504120214 57 336 0.9 2.6 0.00 0.00 0.00 56 1016.6
20260504120115 57 336 0.9 2.6 0.00 0.00 0.00 57 1016.7
20260504110659 52 242 0.0 1.7 0.00 0.00 0.00 60 1016.4
20260504110549 52 242 0.0 1.7 0.00 0.00 0.00 59 1016.4
20260504110451 52 248 0.0 1.7 0.00 0.00 0.00 59 1016.4
20260504110349 52 248 0.0 1.7 0.00 0.00 0.00 59 1016.4
20260504110249 52 248 0.0 1.7 0.00 0.00 0.00 59 1016.4
20260504110149 52 248 0.0 1.7 0.00 0.00 0.00 59 1016.4
20260504100532 53 274 2.6 7.8 0.00 0.00 0.00 58 1016.4
20260504100426 53 290 3.5 7.8 0.00 0.00 0.00 58 1016.4
20260504100326 53 307 3.5 7.8 0.00 0.00 0.00 57 1016.3
20260504100225 53 307 3.5 7.8 0.00 0.00 0.00 57 1016.4
20260504100124 53 304 4.3 7.8 0.00 0.00 0.00 57 1016.5
20260504081958 51 225 0.0 1.7 0.00 0.00 0.00 52 1016.3
20260504081856 51 225 0.0 1.7 0.00 0.00 0.00 52 1016.2
20260504081758 51 225 0.0 1.7 0.00 0.00 0.00 53 1016.2
20260504081651 51 225 0.0 1.7 0.00 0.00 0.00 52 1016.3
20260504081550 51 225 0.0 1.7 0.00 0.00 0.00 52 1016.3
20260504081451 51 225 0.0 1.7 0.00 0.00 0.00 52 1016.3
20260504081350 51 225 0.0 1.7 0.00 0.00 0.00 53 1016.3
20260504081247 51 225 0.0 1.7 0.00 0.00 0.00 52 1016.3
20260504081146 51 225 0.0 1.7 0.00 0.00 0.00 52 1016.3
20260504081046 51 225 0.0 1.7 0.00 0.00 0.00 52 1016.3
20260504080944 51 225 0.0 1.7 0.00 0.00 0.00 52 1016.3
20260504080844 51 225 0.0 1.7 0.00 0.00 0.00 52 1016.3
20260504080742 51 225 0.0 1.7 0.00 0.00 0.00 52 1016.2
20260504080642 50 225 0.0 1.7 0.00 0.00 0.00 53 1016.3
20260504080550 51 225 0.0 1.7 0.00 0.00 0.00 53 1016.3
20260504080439 50 225 0.0 1.7 0.00 0.00 0.00 52 1016.2
20260504080343 51 225 0.0 1.7 0.00 0.00 0.00 52 1016.2
20260504080235 51 225 0.0 1.7 0.00 0.00 0.00 52 1016.3
20260504080130 50 225 0.0 1.7 0.00 0.00 0.00 53 1016.2
20260504070412 51 205 0.9 1.7 0.00 0.00 0.00 64 1016.5
20260504070308 51 205 0.9 1.7 0.00 0.00 0.00 64 1016.3
20260504070210 51 205 0.9 1.7 0.00 0.00 0.00 64 1016.4
20260504070108 51 205 0.9 1.7 0.00 0.00 0.00 65 1016.3
20260504060212 51 201 0.0 0.0 0.00 0.00 0.00 61 1016.3
20260504060109 51 201 0.0 0.0 0.00 0.00 0.00 61 1016.4
20260504050731 51 201 0.0 0.0 0.00 0.00 0.00 55 1016.7
20260504050631 51 201 0.0 0.0 0.00 0.00 0.00 55 1016.9
20260504050532 51 201 0.0 0.0 0.00 0.00 0.00 55 1016.7
20260504050432 52 201 0.0 0.0 0.00 0.00 0.00 55 1016.7
20260504050332 52 201 0.0 0.0 0.00 0.00 0.00 55 1016.9
20260504050231 52 201 0.0 0.0 0.00 0.00 0.00 55 1016.7
20260504050131 52 201 0.0 0.0 0.00 0.00 0.00 56 1016.7
20260504045931 52 201 0.0 0.9 0.00 0.00 0.00 55 1016.7
20260504045831 52 201 0.0 0.9 0.00 0.00 0.00 56 1016.7
20260504045732 52 201 0.0 0.9 0.00 0.00 0.00 56 1016.7
20260504045631 52 201 0.0 0.9 0.00 0.00 0.00 56 1016.7
20260504045531 52 201 0.0 0.9 0.00 0.00 0.00 56 1016.7
20260504045432 52 201 0.0 0.9 0.00 0.00 0.00 56 1016.9
20260504045332 52 201 0.0 0.9 0.00 0.00 0.00 56 1016.6
20260504045232 52 201 0.0 0.9 0.00 0.00 0.00 56 1016.7
20260504045132 52 201 0.0 0.9 0.00 0.00 0.00 56 1016.9
20260504045031 52 201 0.0 0.9 0.00 0.00 0.00 56 1016.7
20260504044931 52 201 0.0 0.9 0.00 0.00 0.00 57 1016.7
20260504044831 52 201 0.0 0.9 0.00 0.00 0.00 57 1016.9
20260504044732 52 201 0.0 0.9 0.00 0.00 0.00 58 1016.9
20260504044632 52 201 0.0 0.9 0.00 0.00 0.00 58 1016.9
20260504044532 52 201 0.0 0.9 0.00 0.00 0.00 58 1016.6
20260504044431 52 201 0.0 0.9 0.00 0.00 0.00 58 1016.7
20260504044333 52 201 0.0 0.9 0.00 0.00 0.00 59 1016.6
20260504044232 52 201 0.0 0.9 0.00 0.00 0.00 59 1016.6
20260504044130 52 201 0.0 0.9 0.00 0.00 0.00 60 1016.7
20260504044032 52 201 0.0 0.9 0.00 0.00 0.00 60 1016.7
20260504043931 52 201 0.0 0.9 0.00 0.00 0.00 60 1016.7
20260504043832 52 201 0.0 0.0 0.00 0.00 0.00 61 1016.6
20260504043732 52 201 0.0 0.0 0.00 0.00 0.00 61 1016.7
20260504043632 52 201 0.0 0.0 0.00 0.00 0.00 62 1016.6
20260504043528 52 201 0.0 0.0 0.00 0.00 0.00 62 1016.6
20260504043427 52 201 0.0 0.0 0.00 0.00 0.00 62 1016.5
20260504043328 52 201 0.0 0.0 0.00 0.00 0.00 62 1016.4
20260504043229 52 201 0.0 0.0 0.00 0.00 0.00 62 1016.5
20260504043128 52 201 0.0 0.0 0.00 0.00 0.00 62 1016.6
20260504043028 52 201 0.0 0.0 0.00 0.00 0.00 62 1016.5
20260504042926 52 201 0.0 0.0 0.00 0.00 0.00 62 1016.5
20260504042828 52 201 0.0 0.0 0.00 0.00 0.00 62 1016.6
20260504042727 52 201 0.0 0.0 0.00 0.00 0.00 62 1016.5
20260504042628 52 201 0.0 0.0 0.00 0.00 0.00 62 1016.6
20260504042528 52 201 0.0 0.0 0.00 0.00 0.00 62 1016.5
20260504042427 53 201 0.0 0.0 0.00 0.00 0.00 62 1016.6
20260504042329 53 201 0.0 0.0 0.00 0.00 0.00 61 1016.7
20260504042227 53 201 0.0 0.0 0.00 0.00 0.00 61 1016.6
20260504042127 53 201 0.0 0.0 0.00 0.00 0.00 62 1016.6
20260504042028 53 201 0.0 0.0 0.00 0.00 0.00 61 1016.5
20260504041927 53 201 0.0 0.0 0.00 0.00 0.00 61 1016.5
20260504041828 53 201 0.0 0.0 0.00 0.00 0.00 61 1016.6
20260504041727 53 201 0.0 0.0 0.00 0.00 0.00 61 1016.6
20260504041627 53 201 0.0 0.0 0.00 0.00 0.00 61 1016.5
20260504041528 53 201 0.0 0.9 0.00 0.00 0.00 61 1016.6
20260504041427 53 201 0.0 0.9 0.00 0.00 0.00 61 1016.5
20260504041327 53 201 0.0 0.9 0.00 0.00 0.00 62 1016.5
20260504041227 53 201 0.0 0.9 0.00 0.00 0.00 61 1016.6
20260504041127 53 201 0.0 0.9 0.00 0.00 0.00 61 1016.5
20260504041027 53 201 0.0 0.9 0.00 0.00 0.00 61 1016.5
20260504040927 53 201 0.0 0.9 0.00 0.00 0.00 61 1016.6
20260504040827 53 201 0.0 0.9 0.00 0.00 0.00 61 1016.6
20260504040727 53 201 0.0 0.9 0.00 0.00 0.00 61 1016.5
20260504040627 53 201 0.0 0.9 0.00 0.00 0.00 61 1016.6
20260504040528 53 201 0.0 0.9 0.00 0.00 0.00 61 1016.5
20260504040427 53 201 0.0 0.9 0.00 0.00 0.00 61 1016.6
20260504040328 53 201 0.0 0.9 0.00 0.00 0.00 61 1016.5
20260504040206 53 201 0.0 0.9 0.00 0.00 0.00 61 1016.5
20260504040105 53 201 0.0 0.9 0.00 0.00 0.00 61 1016.4
20260504040007 53 201 0.0 0.9 0.00 0.00 0.00 61 1016.4
20260504035904 53 201 0.0 0.9 0.00 0.00 0.00 61 1016.5
20260504035759 53 201 0.0 6.1 0.00 0.00 0.00 61 1016.4
20260504035657 53 201 0.0 6.1 0.00 0.00 0.00 61 1016.4
20260504035558 53 201 0.0 6.1 0.00 0.00 0.00 61 1016.3
20260504035456 53 201 0.0 6.1 0.00 0.00 0.00 61 1016.3
20260504035356 53 201 0.0 6.1 0.00 0.00 0.00 61 1016.3
20260504035255 53 201 0.0 6.1 0.00 0.00 0.00 61 1016.3
20260504035157 53 201 0.0 6.1 0.00 0.00 0.00 61 1016.3
20260504035054 53 201 0.0 6.1 0.00 0.00 0.00 61 1016.3
20260504034953 53 201 0.0 6.1 0.00 0.00 0.00 60 1016.3
20260504034854 53 201 0.0 6.1 0.00 0.00 0.00 60 1016.3
20260504034755 53 184 0.0 1.7 0.00 0.00 0.00 60 1016.3
20260504034653 53 184 0.0 0.9 0.00 0.00 0.00 60 1016.4
20260504034554 53 184 0.0 0.9 0.00 0.00 0.00 59 1016.4
20260504034451 53 184 0.0 0.9 0.00 0.00 0.00 59 1016.4
20260504034351 53 184 0.0 0.9 0.00 0.00 0.00 58 1016.5
20260504034250 53 184 0.0 0.9 0.00 0.00 0.00 58 1016.4
20260504034148 53 184 0.0 0.9 0.00 0.00 0.00 57 1016.5
20260504034049 53 184 0.0 0.9 0.00 0.00 0.00 57 1016.4
20260504033947 53 184 0.0 0.9 0.00 0.00 0.00 56 1016.4
20260504033846 53 184 0.0 0.9 0.00 0.00 0.00 56 1016.4
20260504033744 53 184 0.0 0.9 0.00 0.00 0.00 56 1016.4
20260504033641 53 184 0.0 0.9 0.00 0.00 0.00 56 1016.4
20260504033542 53 184 0.0 0.9 0.00 0.00 0.00 55 1016.4
20260504033439 53 184 0.0 0.9 0.00 0.00 0.00 54 1016.4
20260504033341 53 184 0.0 0.9 0.00 0.00 0.00 54 1016.4
20260504033239 53 184 0.0 0.9 0.00 0.00 0.00 54 1016.4
20260504033136 53 184 0.0 0.9 0.00 0.00 0.00 53 1016.3
20260504033035 53 184 0.0 0.9 0.00 0.00 0.00 53 1016.4
20260504032935 53 184 0.0 0.9 0.00 0.00 0.00 52 1016.5
20260504032835 53 184 0.0 0.9 0.00 0.00 0.00 52 1016.4
20260504032735 53 184 0.0 0.9 0.00 0.00 0.00 53 1016.4
20260504032637 53 184 0.0 0.0 0.00 0.00 0.00 53 1016.5
20260504032527 53 184 0.0 0.0 0.00 0.00 0.00 52 1016.5
20260504032426 53 184 0.0 0.0 0.00 0.00 0.00 52 1016.6
20260504032225 53 184 0.0 0.0 0.00 0.00 0.00 52 1016.6
20260504032126 53 184 0.0 0.0 0.00 0.00 0.00 52 1016.5
20260504032026 53 184 0.0 0.0 0.00 0.00 0.00 52 1016.6
20260504031924 53 184 0.0 0.9 0.00 0.00 0.00 52 1016.6
20260504031823 53 184 0.0 1.7 0.00 0.00 0.00 52 1016.6
20260504031722 53 184 0.0 1.7 0.00 0.00 0.00 52 1016.6
20260504031620 53 184 0.0 1.7 0.00 0.00 0.00 52 1016.7
20260504031515 53 184 0.0 1.7 0.00 0.00 0.00 52 1016.7
20260504031414 53 184 0.0 1.7 0.00 0.00 0.00 52 1016.6
20260504031314 53 184 0.0 1.7 0.00 0.00 0.00 52 1016.6
20260504031212 53 184 0.0 1.7 0.00 0.00 0.00 52 1016.7
20260504031112 53 184 0.0 1.7 0.00 0.00 0.00 53 1016.6
20260504031004 53 184 0.0 1.7 0.00 0.00 0.00 53 1016.6
20260504030902 53 184 0.0 1.7 0.00 0.00 0.00 53 1016.6
20260504030801 53 184 0.0 1.7 0.00 0.00 0.00 53 1016.6
20260504030702 53 184 0.0 1.7 0.00 0.00 0.00 53 1016.6
20260504030602 53 184 0.0 1.7 0.00 0.00 0.00 54 1016.6
20260504030500 53 184 0.0 1.7 0.00 0.00 0.00 53 1016.6
20260504030359 53 185 0.0 0.0 0.00 0.00 0.00 53 1016.6
20260504030301 53 185 0.0 0.0 0.00 0.00 0.00 53 1016.7
20260504030157 53 185 0.0 0.0 0.00 0.00 0.00 53 1016.7
20260504030056 53 185 0.0 0.0 0.00 0.00 0.00 53 1016.9
20260504025955 53 185 0.0 0.0 0.00 0.00 0.00 52 1016.7
20260504025854 53 185 0.0 0.0 0.00 0.00 0.00 52 1016.7
20260504025752 53 185 0.0 0.0 0.00 0.00 0.00 52 1016.7
20260504025651 53 185 0.0 0.0 0.00 0.00 0.00 52 1016.9
20260504025551 53 185 0.0 0.0 0.00 0.00 0.00 52 1016.9
20260504025446 53 185 0.0 0.0 0.00 0.00 0.00 52 1016.7
20260504025343 53 185 0.0 0.0 0.00 0.00 0.00 52 1016.9
20260504025244 53 185 0.0 0.0 0.00 0.00 0.00 52 1016.9
20260504025143 53 185 0.0 0.0 0.00 0.00 0.00 53 1017.0
20260504025044 53 185 0.0 0.0 0.00 0.00 0.00 53 1016.9
20260504024944 53 185 0.0 0.0 0.00 0.00 0.00 53 1016.7
20260504024843 53 185 0.0 0.0 0.00 0.00 0.00 53 1017.0
20260504024743 53 185 0.0 0.0 0.00 0.00 0.00 53 1016.9
20260504024644 53 185 0.0 0.0 0.00 0.00 0.00 53 1016.9
20260504024543 53 185 0.0 0.0 0.00 0.00 0.00 53 1016.9
20260504024444 53 185 0.0 0.0 0.00 0.00 0.00 53 1016.9
20260504024343 53 185 0.0 0.0 0.00 0.00 0.00 53 1016.9
20260504024242 53 185 0.0 0.0 0.00 0.00 0.00 53 1016.9
20260504024143 53 185 0.0 0.0 0.00 0.00 0.00 53 1016.9
20260504024043 53 185 0.0 0.0 0.00 0.00 0.00 53 1016.9
20260504023944 53 185 0.0 0.0 0.00 0.00 0.00 53 1016.9
20260504023843 53 185 0.0 0.0 0.00 0.00 0.00 53 1016.7
20260504023745 53 185 0.0 0.0 0.00 0.00 0.00 53 1016.9
20260504023643 53 185 0.0 0.0 0.00 0.00 0.00 53 1016.9
20260504023544 53 185 0.0 0.0 0.00 0.00 0.00 53 1016.7
20260504023443 53 185 0.0 0.0 0.00 0.00 0.00 53 1016.7
20260504023344 53 185 0.0 0.0 0.00 0.00 0.00 53 1016.9
20260504023243 53 185 0.0 0.0 0.00 0.00 0.00 53 1016.9
20260504023144 53 185 0.0 0.0 0.00 0.00 0.00 53 1016.9
20260504023043 53 185 0.0 0.0 0.00 0.00 0.00 53 1016.9
20260504022944 53 185 0.0 0.0 0.00 0.00 0.00 53 1016.9
20260504022844 53 185 0.0 0.0 0.00 0.00 0.00 53 1016.9
20260504022743 53 185 0.0 0.0 0.00 0.00 0.00 53 1016.9
20260504022643 53 185 0.0 0.0 0.00 0.00 0.00 53 1016.9
20260504022544 53 185 0.0 0.0 0.00 0.00 0.00 53 1017.0
20260504022443 53 185 0.0 0.0 0.00 0.00 0.00 53 1016.9
20260504022342 53 185 0.0 0.0 0.00 0.00 0.00 52 1016.9
20260504022244 53 185 0.0 0.0 0.00 0.00 0.00 53 1016.9
20260504022140 53 185 0.0 0.0 0.00 0.00 0.00 53 1016.9
20260504022039 53 185 0.0 0.0 0.00 0.00 0.00 53 1016.9
20260504021940 53 185 0.0 0.0 0.00 0.00 0.00 52 1016.9
20260504021839 53 185 0.0 0.0 0.00 0.00 0.00 52 1016.9
20260504021740 53 185 0.0 0.0 0.00 0.00 0.00 52 1016.9
20260504021639 54 185 0.0 0.0 0.00 0.00 0.00 52 1016.7
20260504021539 53 185 0.0 0.0 0.00 0.00 0.00 53 1016.7
20260504021439 53 185 0.0 0.0 0.00 0.00 0.00 52 1016.7
20260504021339 54 185 0.0 0.0 0.00 0.00 0.00 52 1016.7
20260504021241 54 185 0.0 0.0 0.00 0.00 0.00 53 1016.7
20260504021139 54 185 0.0 0.0 0.00 0.00 0.00 53 1016.6
20260504021039 54 185 0.0 0.0 0.00 0.00 0.00 53 1016.6
20260504020939 54 185 0.0 0.0 0.00 0.00 0.00 53 1016.6
20260504020841 54 185 0.0 0.0 0.00 0.00 0.00 52 1016.6
20260504020740 54 185 0.0 0.0 0.00 0.00 0.00 53 1016.6
20260504020639 54 185 0.0 0.0 0.00 0.00 0.00 53 1016.6
20260504020539 54 185 0.0 0.0 0.00 0.00 0.00 52 1016.7
20260504020440 54 185 0.0 0.0 0.00 0.00 0.00 52 1016.6
20260504020339 54 185 0.0 0.0 0.00 0.00 0.00 52 1016.6
20260504020239 54 185 0.0 0.0 0.00 0.00 0.00 52 1016.6
20260504020139 54 185 0.0 0.0 0.00 0.00 0.00 52 1016.5
20260504020040 54 185 0.0 0.0 0.00 0.00 0.00 52 1016.5
20260504015940 54 185 0.0 0.0 0.00 0.00 0.00 52 1016.5
20260504015840 55 185 0.0 0.0 0.00 0.00 0.00 53 1016.6
20260504015739 55 185 0.0 0.0 0.00 0.00 0.00 52 1016.5
20260504015640 55 185 0.0 0.0 0.00 0.00 0.00 52 1016.6
20260504015539 55 185 0.0 0.9 0.00 0.00 0.00 52 1016.5
20260504015440 55 185 0.0 1.7 0.00 0.00 0.00 52 1016.5
20260504015339 55 185 0.0 1.7 0.00 0.00 0.00 52 1016.5
20260504015239 55 185 0.0 1.7 0.00 0.00 0.00 52 1016.4
20260504015140 55 185 0.9 1.7 0.00 0.00 0.00 52 1016.5
20260504015039 55 185 0.9 1.7 0.00 0.00 0.00 52 1016.4
20260504014940 55 185 0.9 1.7 0.00 0.00 0.00 52 1016.4
20260504014836 55 185 0.9 1.7 0.00 0.00 0.00 52 1016.4
20260504014736 55 185 0.9 1.7 0.00 0.00 0.00 52 1016.3
20260504014636 55 185 0.9 1.7 0.00 0.00 0.00 51 1016.2
20260504014535 55 185 0.0 1.7 0.00 0.00 0.00 51 1016.2
20260504014436 55 185 0.0 1.7 0.00 0.00 0.00 51 1016.2
20260504014336 55 185 0.0 1.7 0.00 0.00 0.00 51 1016.2
20260504014234 55 186 0.0 2.6 0.00 0.00 0.00 51 1016.1
20260504014136 55 186 0.0 2.6 0.00 0.00 0.00 52 1016.1
20260504014037 55 186 0.9 2.6 0.00 0.00 0.00 52 1016.1
20260504013935 55 186 0.9 2.6 0.00 0.00 0.00 52 1016.1
20260504013834 55 186 0.9 2.6 0.00 0.00 0.00 52 1016.1
20260504013735 55 186 0.9 2.6 0.00 0.00 0.00 51 1016.0
20260504013637 55 186 0.9 2.6 0.00 0.00 0.00 51 1016.0
20260504013534 55 186 0.9 2.6 0.00 0.00 0.00 51 1016.0
20260504013435 55 186 0.9 2.6 0.00 0.00 0.00 51 1016.0
20260504013335 55 186 0.9 2.6 0.00 0.00 0.00 51 1016.1
20260504013237 55 186 0.9 2.6 0.00 0.00 0.00 51 1016.0
20260504013135 55 186 0.9 2.6 0.00 0.00 0.00 50 1016.0
20260504013035 55 185 0.9 2.6 0.00 0.00 0.00 51 1016.0
20260504012935 55 185 0.9 2.6 0.00 0.00 0.00 51 1015.9
20260504012836 55 186 0.9 2.6 0.00 0.00 0.00 51 1015.9
20260504012736 55 186 0.9 2.6 0.00 0.00 0.00 51 1015.9
20260504012635 55 185 0.9 2.6 0.00 0.00 0.00 51 1015.9
20260504012535 55 186 0.9 2.6 0.00 0.00 0.00 51 1015.9
20260504012435 55 186 0.9 2.6 0.00 0.00 0.00 51 1016.0
20260504012336 55 186 0.9 2.6 0.00 0.00 0.00 51 1015.9
20260504012236 55 186 0.9 3.5 0.00 0.00 0.00 51 1016.0
20260504012137 55 186 0.9 3.5 0.00 0.00 0.00 51 1015.9
20260504012036 55 186 0.9 3.5 0.00 0.00 0.00 51 1016.0
20260504011936 55 186 0.9 3.5 0.00 0.00 0.00 51 1016.0
20260504011835 55 188 0.9 3.5 0.00 0.00 0.00 52 1016.0
20260504011735 55 188 0.9 3.5 0.00 0.00 0.00 51 1016.0
20260504011636 55 188 0.9 3.5 0.00 0.00 0.00 51 1016.0
20260504011531 55 188 0.9 3.5 0.00 0.00 0.00 51 1016.0
20260504011430 55 188 0.9 3.5 0.00 0.00 0.00 51 1016.0
20260504011332 55 186 0.9 3.5 0.00 0.00 0.00 51 1016.0
20260504011230 55 188 0.9 3.5 0.00 0.00 0.00 51 1015.9
20260504011132 55 188 0.9 3.5 0.00 0.00 0.00 51 1015.9
20260504011031 55 189 0.9 3.5 0.00 0.00 0.00 51 1016.0
20260504010932 55 188 0.9 3.5 0.00 0.00 0.00 51 1015.9
20260504010833 55 188 0.9 3.5 0.00 0.00 0.00 50 1015.8
20260504010732 55 184 0.9 3.5 0.00 0.00 0.00 51 1015.9
20260504010632 55 184 0.9 3.5 0.00 0.00 0.00 51 1015.8
20260504010530 55 185 0.9 3.5 0.00 0.00 0.00 51 1015.8
20260504010432 55 185 0.9 3.5 0.00 0.00 0.00 51 1015.9
20260504010331 55 185 0.9 3.5 0.00 0.00 0.00 51 1015.8
20260504010230 55 207 0.9 3.5 0.00 0.00 0.00 51 1015.7
20260504010131 55 177 0.9 2.6 0.00 0.00 0.00 52 1015.9
20260504010031 55 177 0.9 2.6 0.00 0.00 0.00 51 1015.9
20260504005931 55 177 0.9 4.3 0.00 0.00 0.00 51 1015.8
20260504005832 55 177 0.9 4.3 0.00 0.00 0.00 52 1015.8
20260504005731 55 179 1.7 4.3 0.00 0.00 0.00 51 1015.8
20260504005632 55 179 1.7 4.3 0.00 0.00 0.00 50 1015.7
20260504005531 55 175 1.7 4.3 0.00 0.00 0.00 50 1015.8
20260504005432 55 175 1.7 4.3 0.00 0.00 0.00 50 1015.8
20260504005331 56 175 1.7 4.3 0.00 0.00 0.00 50 1015.8
20260504005233 55 175 1.7 4.3 0.00 0.00 0.00 50 1015.7
20260504005131 56 175 1.7 4.3 0.00 0.00 0.00 50 1015.8
20260504005032 56 175 1.7 4.3 0.00 0.00 0.00 50 1015.8
20260504004932 56 169 1.7 5.2 0.00 0.00 0.00 50 1015.8
20260504004831 56 168 1.7 5.2 0.00 0.00 0.00 49 1015.7
20260504004730 56 168 1.7 5.2 0.00 0.00 0.00 49 1015.7
20260504004631 56 157 1.7 5.2 0.00 0.00 0.00 49 1015.7
20260504004531 56 157 1.7 5.2 0.00 0.00 0.00 49 1015.7
20260504004431 56 155 1.7 5.2 0.00 0.00 0.00 48 1015.7
20260504004331 56 155 2.6 5.2 0.00 0.00 0.00 48 1015.7
20260504004227 56 156 2.6 5.2 0.00 0.00 0.00 48 1015.7
20260504004127 56 155 2.6 5.2 0.00 0.00 0.00 48 1015.8
20260504004026 56 154 2.6 5.2 0.00 0.00 0.00 48 1015.8
20260504003927 56 161 2.6 4.3 0.00 0.00 0.00 48 1015.7
20260504003827 56 160 2.6 4.3 0.00 0.00 0.00 48 1015.6
20260504003727 56 166 1.7 4.3 0.00 0.00 0.00 48 1015.7
20260504003627 56 166 2.6 4.3 0.00 0.00 0.00 48 1015.8
20260504003527 56 166 1.7 4.3 0.00 0.00 0.00 48 1015.6
20260504003426 56 163 1.7 4.3 0.00 0.00 0.00 47 1015.8